Regional Weather Roundup
Issued by NWS

Home | Current Version | Previous Version | Graphics & Text | Print | Product List | Glossary On
Versions: 1 2 3 4 5 6 7 8 9 10 11 12 13 14 15 16 17 18 19 20 21 22 23 24 25 26 27 28 29 30 31 32 33 34 35 36 37 38 39 40 41 42 43 44 45 46 47 48 49 50
455
ASUS43 KDTX 050601
RWRMI
MICHIGAN HOURLY REGIONAL WEATHER ROUNDUP
NATIONAL WEATHER SERVICE DETROIT/PONTIAC MI
100 AM EST MON DEC 05 2016

NOTE: "FAIR" INDICATES FEW OR NO CLOUDS BELOW 12,000 FEET WITH NO
SIGNIFICANT WEATHER AND/OR OBSTRUCTION TO VISIBILITY.

MIZ047>049-052>055-059>063-066>070-074>076-081>083-050700-
SOUTHEAST LOWER MICHIGAN

CITY           SKY/WX    TMP DP  RH WIND       PRES   REMARKS
ADRIAN         CLOUDY    33  33 100 W9G20     29.85R FOG     WCI  25
6HR MIN TEMP:  32; 6HR MAX TEMP:  33; 6HR PCP:  0.07;

ALMA           FOG       29  29 100 S3        29.82S VSB 1/4
6HR MIN TEMP:  29; 6HR MAX TEMP:  33;

ANN ARBOR      CLOUDY    33  32  96 SW7       29.82R FOG     WCI  27
BAD AXE        LGT SNOW  32  32  99 CALM      29.80F
CARO           LGT SNOW  32  32 100 CALM      29.80S
DETROIT CITY   CLOUDY    35  34  96 SW9       29.81S WCI  28
6HR MIN TEMP:  33; 6HR MAX TEMP:  38; 6HR PCP:  0.12;

DETROIT        CLOUDY    34  33  96 SW9       29.82S FOG     WCI  27
6HR MIN TEMP:  33; 6HR MAX TEMP:  36; 6HR PCP:  0.18;

FLINT          CLOUDY    33  32  96 W5        29.82S FOG     WCI  29
6HR MIN TEMP:  32; 6HR MAX TEMP:  34; 6HR PCP:  0.17;

GROSSE ILE     CLOUDY    35  33  92 W7        29.81R WCI  29
6HR MIN TEMP:  34; 6HR MAX TEMP:  37; 6HR PCP:  0.12;

HILLSDALE      CLOUDY    32  32 100 W14       29.83R FOG     WCI  22
HOWELL         CLOUDY    33  32  98 W3        29.81S FOG
6HR MIN TEMP:  32; 6HR MAX TEMP:  33; 6HR PCP:  0.05;


CITY           SKY/WX    TMP DP  RH WIND       PRES   REMARKS
JACKSON        CLOUDY    33  30  88 W8        29.83R WCI  26
6HR MIN TEMP:  32; 6HR MAX TEMP:  33; 6HR PCP:  0.09;

LAMBERTVILLE   CLOUDY    36  34  92 W10       29.85R FOG     WCI  28
6HR MIN TEMP:  34; 6HR MAX TEMP:  36;

LANSING        CLOUDY    32  30  92 W5        29.83S FOG     WCI  27
6HR MIN TEMP:  32; 6HR MAX TEMP:  33; 6HR PCP:  0.22;

LAPEER         NOT AVBL
MASON          CLOUDY    32  32 100 W5        29.83R FOG     WCI  27
MONROE         CLOUDY    34  34  99 SW12      29.82R FOG     WCI  26
6HR MIN TEMP:  33; 6HR MAX TEMP:  36; 6HR PCP:  0.11;

MT. CLEMENS    CLOUDY    34  34  99 SW3       29.79S
6HR MIN TEMP:  34; 6HR MAX TEMP:  39; 6HR PCP:  0.17;

PONTIAC        CLOUDY    33  30  88 W3        29.79S FOG
6HR MIN TEMP:  32; 6HR MAX TEMP:  36; 6HR PCP:  0.12;

PORT HOPE        N/A     33  32  96 W3        29.79F
6HR MIN TEMP:  33; 6HR MAX TEMP:  38; 6HR PCP:  0.28;

PORT HURON     LGT SNOW  32  32 100 CALM      29.80S
TRI CITIES     FOG       32  32 100 SW3       29.82F VSB 3/4
6HR MIN TEMP:  32; 6HR MAX TEMP:  33; 6HR PCP:  0.05;

MIDLAND        CLOUDY    32  32  99 CALM      29.81S FOG
6HR MIN TEMP:  32; 6HR MAX TEMP:  33; 6HR PCP:  0.03;

TROY           LGT SNOW  34  32  93 W3        29.82S
SAGINAW HB     CLOUDY    32  30  93 CALM      29.81S FOG
$$
MIZ043>046-050>051-056>058-064>065-071>073-077>080-050700-
SOUTHWEST LOWER MICHIGAN

CITY           SKY/WX    TMP DP  RH WIND       PRES   REMARKS
BATTLE CREEK   CLOUDY    33  32  96 W7        29.85R WCI  27
6HR MIN TEMP:  32; 6HR MAX TEMP:  33; 6HR PCP:  0.11;

BENTON HARBOR  CLOUDY    37  31  78 W17       29.89R WCI  27
6HR MIN TEMP:  33; 6HR MAX TEMP:  38; 6HR PCP:  0.18;

BIG RAPIDS     LGT SNOW  33  31  92 SW5       29.79S WCI  29
6HR MIN TEMP:  32; 6HR MAX TEMP:  33; 6HR PCP:  0.09;

COLDWATER      CLOUDY    33  33 100 W10       29.86R FOG     WCI  25
6HR MIN TEMP:  33; 6HR MAX TEMP:  33;

FREMONT        CLOUDY    32  32  99 SW5       29.81S FOG     WCI  28
HOLLAND        CLOUDY    36  32  85 W10       29.85R WCI  28
6HR MIN TEMP:  32; 6HR MAX TEMP:  36; 6HR PCP:  0.15;

GRAND RAPIDS   LGT SNOW  32  30  92 SW6       29.83S FOG     WCI  26
6HR MIN TEMP:  30; 6HR MAX TEMP:  33; 6HR PCP:  0.19;

IONIA          FOG       29  28  97 SW6       29.82S VSB 3/4 WCI  23
6HR MIN TEMP:  28; 6HR MAX TEMP:  32; 6HR PCP:  0.10;

KALAMAZOO      CLOUDY    33  30  88 SW6       29.86R WCI  28
6HR MIN TEMP:  33; 6HR MAX TEMP:  33; 6HR PCP:  0.08;

LUDINGTON      CLOUDY    35  32  88 W10G16    29.80S WCI  28
6HR MIN TEMP:  32; 6HR MAX TEMP:  36;

MARSHALL       CLOUDY    33  32  98 W7        29.84R FOG     WCI  26
6HR MIN TEMP:  32; 6HR MAX TEMP:  33; 6HR PCP:  0.03;

MOUNT PLEASANT FOG       31  31  99 CALM      29.80S VSB 1/2
6HR MIN TEMP:  30; 6HR MAX TEMP:  33; 6HR PCP:  0.13;

MUSKEGON       CLOUDY    38  33  82 W15       29.84R WCI  29
6HR MIN TEMP:  33; 6HR MAX TEMP:  38; 6HR PCP:  0.13;

SOUTH HAVEN    CLOUDY    38  34  84 W9G20     29.88R WCI  32
$$
MIZ016>042-050700-
NORTHERN LOWER MICHIGAN

CITY           SKY/WX    TMP DP  RH WIND       PRES   REMARKS
ALPENA         SNOW      32  31  96 CALM      29.79F VSB 1/2
6HR MIN TEMP:  32; 6HR MAX TEMP:  33; 6HR PCP:  0.21;

BEAVER ISLAND  MIX PCPN  33  33  99 S5        29.73F WCI  29
BELLAIRE       CLOUDY    33  32  98 S5        29.77F FOG     WCI  28
6HR MIN TEMP:  32; 6HR MAX TEMP:  33;

CADILLAC       LGT SNOW  31  30  95 SW8       29.74F WCI  24
CHARLEVOIX     LGT SNOW  33  32  99 S5        29.78F WCI  28
FRANKFORT      CLOUDY    36  33  89 W9G23     29.77S WCI  29
GAYLORD        LGT SNOW  31  27  85 S9        29.74F FOG     WCI  23
6HR MIN TEMP:  30; 6HR MAX TEMP:  31; 6HR PCP:  0.07;

GRAYLING       LGT SNOW  31  30  95 CALM      29.76F
6HR MIN TEMP:  31; 6HR MAX TEMP:  33;

HARBOR SPRINGS LGT SNOW  32  32  99 CALM      29.76F
HOUGHTON LAKE  LGT SNOW  31  29  92 SW5       29.77F FOG     WCI  26
6HR MIN TEMP:  30; 6HR MAX TEMP:  31; 6HR PCP:  0.14;

MANISTEE       CLOUDY    34  32  92 W18       29.79S WCI  23
OSCODA         LGT SNOW  33  32  96 MISG      29.78F
6HR MIN TEMP:  33; 6HR MAX TEMP:  36; 6HR PCP:  0.12;

PELLSTON       LGT SNOW  31  29  92 SE5       29.76F FOG     WCI  26
6HR MIN TEMP:  31; 6HR MAX TEMP:  32; 6HR PCP:  0.11;

ROGERS CITY    LGT SNOW  32  32  97 CALM      29.79F
TRAVERSE CITY  CLOUDY    33  30  88 CALM      29.76S VSB 1
6HR MIN TEMP:  33; 6HR MAX TEMP:  33; 6HR PCP:  0.08;

$$
MIZ007>008-015-050700-
EASTERN UPPER MICHIGAN

CITY           SKY/WX    TMP DP  RH WIND       PRES   REMARKS
KINROSS        LGT SNOW  31  30  96 SE5       29.76F FOG     WCI  26
6HR MIN TEMP:  31; 6HR MAX TEMP:  32; 6HR PCP:  0.17;

MACKINAC ISLAN LGT SNOW  32  32 100 S6        29.75F WCI  26
6HR MIN TEMP:  32; 6HR MAX TEMP:  32; 6HR PCP:  0.13;

NEWBERRY       LGT SNOW  32  32  99 CALM      29.72F
6HR MIN TEMP:  32; 6HR MAX TEMP:  32; 6HR PCP:  0.04;

S. S. MARIE    LGT SNOW  32  30  92 CALM      29.76F FOG
6HR MIN TEMP:  31; 6HR MAX TEMP:  32; 6HR PCP:  0.36;

MUNISING         N/A     33  31  92 S5        29.71F WCI  29
6HR MIN TEMP:  32; 6HR MAX TEMP:  33; 6HR PCP:  0.09;

$$
MIZ004>006-011>014-085-050700-
CENTRAL UPPER MICHIGAN

CITY           SKY/WX    TMP DP  RH WIND       PRES   REMARKS
MANISTIQUE     DRIZZLE   34  32  92 W6        29.72F WCI  29
6HR MIN TEMP:  33; 6HR MAX TEMP:  35; 6HR PCP:  0.08;

ESCANABA       CLOUDY    32  31  96 SW7       29.74S WCI  26
6HR MIN TEMP:  32; 6HR MAX TEMP:  32; 6HR PCP:  0.12;

MENOMINEE      CLOUDY    31  30  96 VRB6      29.77S FOG     WCI  25
6HR MIN TEMP:  31; 6HR MAX TEMP:  32;

SAWYER-GWINN   CLOUDY    29  28  95 SW9       29.69S WCI  21
6HR MIN TEMP:  29; 6HR MAX TEMP:  30;

$$
MIZ001>003-009>011-084-050700-
WESTERN UPPER MICHIGAN

CITY           SKY/WX    TMP DP  RH WIND       PRES   REMARKS
IRON MOUNTAIN  CLOUDY    30  27  88 S5        29.70S WCI  25
6HR MIN TEMP:  29; 6HR MAX TEMP:  30; 6HR PCP: TRACE;

HOUGHTON       CLOUDY    29  27  92 SW6       29.65S WCI  23
6HR MIN TEMP:  29; 6HR MAX TEMP:  30; 6HR PCP:  0.04;

COPPER HARBOR    N/A     33  30  88 VRB7      29.66F WCI  27
6HR MIN TEMP:  32; 6HR MAX TEMP:  33; 6HR PCP:  0.14;

IRONWOOD       CLOUDY    33  31  92 SW8       29.67S WCI  26
6HR MIN TEMP:  30; 6HR MAX TEMP:  33; 6HR PCP: TRACE;

$$

ABBREVIATIONS USED IN REMARKS
   TC - TEMPERATURE IN CELSIUS
  WCI - WIND CHILL INDEX
   HX - HEAT INDEX
  VSB - VISIBILITY





USA.gov is the U.S. government's official web portal to all federal, state and local government web resources and services.